Find ISS (International Space Station)

NORAD ID: 25544 Int'l Des: 1998-067A Owner: JSC Country: US operational
LEOCIRCULAR

現在のビュー

3D地球を読み込み中...

ISS (Zarya)について

説明を読み込み中...

次回通過

Passes for default location (London). Set your location on the main map for personalized predictions.

高度履歴

Loading altitude history...

軌道要素

1 25544U 98067A 26144.19669721 .00007438 00000-0 14130-3 0 9992
2 25544 51.6327 58.8652 0007496 92.3340 267.8507 15.49341091568031
Epoch: May 24, 2026 • Age: 23 hours

現在のステータス

高度 436.1 km
速度 7.65 km/s
衛星直下点 -40.02°S, 74.42°E
打ち上げ日 Nov 20, 1998
運用期間 27.5 years
タイプ other

技術仕様

分類 Payload
質量 20281.00 kg
乾燥質量 19000.00 kg
総質量 20351.00 kg
長さ 12.60 m
直径 4.20 m
スパン 23.90 m
形状 Cyl + 2 Pan
製造者 KHRR
バスタイプ 77KS
フェーズステータス Grappled
所有者/国 JSC/US

Most Searched